Change the Weather History Date:

Saturday, September 14, 2013

  Actual Average (KCBG) Record (KCBG)
Temperature  
Mean Temperature 56 °F -  
Max Temperature 71 °F 66 °F 85 °F (1968)
Min Temperature 42 °F 45 °F 30 °F (1996)
Degree Days  
Heating Degree Days 9    
Growing Degree Days 6 (Base 50)    
Moisture  
Dew Point 48 °F    
Average Humidity 79    
Maximum Humidity 96    
Minimum Humidity 43    
Precipitation  
Precipitation 1.25 in - - ()
Sea Level Pressure  
Sea Level Pressure 30.00 in    
Wind  
Wind Speed 2 mph (South)    
Max Wind Speed 13 mph    
Max Gust Speed 18 mph    
Visibility 10 miles    
Events Rain    
Averages and records for this station are not official NWS values.
T = Trace of Precipitation, MM = Missing Value Source: NWS Daily Summary

Daily Weather History Graph

Daily Weather History Graph

Search for Another Location

Airport or City:

Trip Planner

Search our weather history database for the weather conditions in past years. The results will help you decide how hot, cold, wet, or windy it might be!

Date:

Astronomy

Sep. 14, 2013 Rise Set
Actual Time 6:49 AM CDT 7:24 PM CDT
Civil Twilight 6:19 AM CDT 7:54 PM CDT
Nautical Twilight 5:43 AM CDT 8:29 PM CDT
Astronomical Twilight 5:06 AM CDT 9:06 PM CDT
Moon 4:17 PM CDT (9/14) 1:08 AM CDT (9/14)
Length of Visible Light 13h 34m
Length of Day
12h 35m
Waxing Gibbous, 72% of the Moon is Illuminated
Sep 14
Waxing Gibbous
Sep 19
Full
Sep 26
Last Quarter
Oct 4
New
Oct 11
First Quarter

Hourly Weather History & Observations

Time (CDT) Temp. Dew Point Humidity Pressure Visibility Wind Dir Wind Speed Gust Speed Precip Events Conditions
12:15 AM 46.9 °F 43.5 °F 88% 30.08 in 10.0 mi Calm Calm - N/A   Mostly Cloudy
12:35 AM 46.6 °F 43.3 °F 88% 30.08 in 10.0 mi Calm Calm - N/A   Mostly Cloudy
12:54 AM 46.9 °F 44.1 °F 90% 30.08 in 10.0 mi Calm Calm - N/A   Mostly Cloudy
1:15 AM 46.4 °F 43.5 °F 90% 30.08 in 10.0 mi Calm Calm - N/A   Scattered Clouds
1:35 AM 45.9 °F 43.0 °F 90% 30.08 in 10.0 mi Calm Calm - N/A   Scattered Clouds
1:54 AM 45.9 °F 43.2 °F 90% 30.08 in 10.0 mi Calm Calm - N/A   Mostly Cloudy
2:15 AM 46.4 °F 43.7 °F 90% 30.08 in 10.0 mi Calm Calm - N/A   Scattered Clouds
2:35 AM 45.9 °F 43.2 °F 90% 30.08 in 10.0 mi Calm Calm - N/A   Scattered Clouds
2:54 AM 46.0 °F 43.2 °F 90% 30.07 in 10.0 mi Calm Calm - N/A   Scattered Clouds
3:15 AM 45.9 °F 42.8 °F 89% 30.07 in 10.0 mi Calm Calm - N/A   Scattered Clouds
3:35 AM 45.1 °F 42.3 °F 90% 30.06 in 10.0 mi Calm Calm - N/A   Mostly Cloudy
3:54 AM 45.5 °F 42.4 °F 89% 30.06 in 10.0 mi Calm Calm - N/A   Scattered Clouds
4:15 AM 45.5 °F 42.4 °F 89% 30.06 in 10.0 mi Calm Calm - N/A   Scattered Clouds
4:34 AM 44.8 °F 41.9 °F 90% 30.06 in 10.0 mi Calm Calm - N/A   Mostly Cloudy
4:54 AM 44.1 °F 41.5 °F 91% 30.06 in 10.0 mi Calm Calm - N/A   Scattered Clouds
5:14 AM 43.3 °F 41.0 °F 91% 30.06 in 10.0 mi Calm Calm - N/A   Scattered Clouds
5:35 AM 42.1 °F 40.1 °F 93% 30.06 in 10.0 mi Calm Calm - N/A   Scattered Clouds
5:55 AM 42.8 °F 41.0 °F 93% 30.06 in 10.0 mi Calm Calm - N/A   Scattered Clouds
6:14 AM 43.2 °F 41.2 °F 93% 30.06 in 10.0 mi Calm Calm - N/A   Scattered Clouds
6:34 AM 43.0 °F 41.2 °F 93% 30.06 in 10.0 mi Calm Calm - N/A   Scattered Clouds
6:55 AM 43.5 °F 41.4 °F 92% 30.05 in 10.0 mi Calm Calm - N/A   Scattered Clouds
7:14 AM 43.7 °F 41.7 °F 93% 30.06 in 10.0 mi Calm Calm - N/A   Scattered Clouds
7:34 AM 44.8 °F 42.8 °F 93% 30.06 in 10.0 mi Calm Calm - N/A   Clear
7:55 AM 48.0 °F 45.0 °F 89% 30.05 in 10.0 mi South 4.6 mph - N/A   Clear
8:14 AM 49.5 °F 45.5 °F 86% 30.05 in 10.0 mi South 3.5 mph - N/A   Clear
8:34 AM 52.5 °F 47.1 °F 82% 30.04 in 10.0 mi Calm Calm - N/A   Clear
8:55 AM 54.1 °F 47.1 °F 77% 30.04 in 10.0 mi South 5.8 mph - N/A   Clear
9:14 AM 56.5 °F 47.1 °F 71% 30.04 in 10.0 mi South 5.8 mph - N/A   Clear
9:34 AM 59.0 °F 46.9 °F 64% 30.04 in 10.0 mi SSW 5.8 mph - N/A   Clear
9:55 AM 61.7 °F 47.1 °F 59% 30.03 in 10.0 mi SSW 8.1 mph - N/A   Clear
10:14 AM 63.1 °F 47.1 °F 56% 30.03 in 10.0 mi SSW 9.2 mph - N/A   Clear
10:34 AM 65.3 °F 47.1 °F 52% 30.02 in 10.0 mi SW 8.1 mph - N/A   Clear
10:55 AM 65.5 °F 47.1 °F 51% 30.01 in 10.0 mi South 5.8 mph - N/A   Clear
11:14 AM 65.8 °F 47.3 °F 51% 30.01 in 10.0 mi SSW 8.1 mph - N/A   Clear
11:34 AM 67.1 °F 47.3 °F 49% 30.00 in 10.0 mi SSW 10.4 mph - N/A   Clear
11:55 AM 68.2 °F 47.3 °F 47% 30.00 in 10.0 mi SSW 6.9 mph - N/A   Clear
12:14 PM 70.2 °F 47.3 °F 44% 29.99 in 10.0 mi South 12.7 mph - N/A   Clear
12:35 PM 70.3 °F 47.5 °F 44% 29.98 in 10.0 mi SSW 9.2 mph - N/A   Clear
12:54 PM 70.2 °F 46.4 °F 43% 29.97 in 10.0 mi SSW 12.7 mph 18.4 mph N/A   Clear
1:14 PM 69.6 °F 46.6 °F 44% 29.96 in 10.0 mi SSW 11.5 mph - N/A   Clear
1:35 PM 69.1 °F 46.8 °F 45% 29.96 in 10.0 mi SSW 10.4 mph - N/A   Clear
1:54 PM 68.0 °F 47.7 °F 48% 29.95 in 10.0 mi SSW 6.9 mph - N/A   Clear
2:14 PM 68.2 °F 47.8 °F 48% 29.95 in 10.0 mi SSW 6.9 mph - N/A   Clear
2:35 PM 68.0 °F 48.2 °F 49% 29.95 in 10.0 mi SSW 3.5 mph - N/A   Clear
2:54 PM 67.5 °F 48.7 °F 51% 29.95 in 10.0 mi SSW 3.5 mph - N/A   Clear
3:14 PM 68.0 °F 48.4 °F 49% 29.94 in 10.0 mi SSW 6.9 mph - N/A   Clear
3:35 PM 68.0 °F 48.4 °F 49% 29.94 in 10.0 mi SW 4.6 mph - N/A   Scattered Clouds
3:54 PM 66.4 °F 50.2 °F 56% 29.94 in 10.0 mi Calm Calm - N/A   Mostly Cloudy
4:14 PM 65.7 °F 52.0 °F 61% 29.94 in 10.0 mi Calm Calm - N/A   Overcast
4:35 PM 63.1 °F 53.4 °F 71% 29.95 in 10.0 mi Calm Calm - N/A Rain Light Rain
4:54 PM 61.0 °F 55.4 °F 82% 29.95 in 10.0 mi Calm Calm - 0.03 in Rain Light Rain
5:14 PM 59.9 °F 55.4 °F 85% 29.94 in 10.0 mi Calm Calm - 0.03 in Rain Light Rain
5:35 PM 59.0 °F 55.9 °F 90% 29.94 in 7.0 mi Calm Calm - 0.12 in Rain Light Rain
5:54 PM 58.5 °F 56.1 °F 92% 29.96 in 10.0 mi Calm Calm - 0.21 in Rain Light Rain
6:15 PM 57.6 °F 55.4 °F 92% 29.96 in 7.0 mi Calm Calm - 0.13 in Rain Light Rain
6:34 PM 56.8 °F 54.7 °F 92% 29.96 in 10.0 mi Calm Calm - 0.27 in Rain Light Rain
6:55 PM 56.7 °F 54.7 °F 93% 29.98 in 5.0 mi Calm Calm - 0.46 in Rain Light Rain
7:14 PM 56.3 °F 54.5 °F 94% 29.96 in 7.0 mi Calm Calm - 0.10 in Rain Light Rain
7:34 PM 55.6 °F 54.0 °F 94% 29.96 in 7.0 mi Calm Calm - 0.21 in Rain Light Rain
7:55 PM 53.8 °F 52.0 °F 94% 29.98 in 10.0 mi East 4.6 mph - 0.33 in Rain Light Rain
8:14 PM 53.4 °F 51.8 °F 94% 29.98 in 10.0 mi Calm Calm - 0.05 in Rain Light Rain
8:35 PM 53.6 °F 51.8 °F 94% 29.98 in 10.0 mi East 4.6 mph - 0.10 in Rain Light Rain
8:54 PM 53.4 °F 51.8 °F 94% 29.98 in 10.0 mi East 5.8 mph - 0.12 in Rain Light Rain
9:14 PM 52.3 °F 50.9 °F 95% 29.97 in 10.0 mi Calm Calm - 0.02 in   Overcast
9:35 PM 52.7 °F 50.9 °F 94% 29.96 in 10.0 mi East 4.6 mph - 0.02 in Rain Light Rain
9:54 PM 52.7 °F 51.3 °F 95% 29.96 in 10.0 mi Calm Calm - 0.04 in   Overcast
10:14 PM 52.9 °F 51.4 °F 95% 29.95 in 10.0 mi Calm Calm - N/A   Overcast
10:35 PM 53.2 °F 52.0 °F 95% 29.94 in 10.0 mi Calm Calm - 0.01 in   Overcast
10:54 PM 53.6 °F 52.3 °F 95% 29.94 in 10.0 mi East 4.6 mph - 0.01 in   Overcast
11:14 PM 53.8 °F 52.7 °F 96% 29.94 in 10.0 mi East 3.5 mph - N/A   Overcast
11:35 PM 53.8 °F 52.7 °F 96% 29.94 in 10.0 mi ESE 3.5 mph - 0.03 in Rain Light Rain
11:54 PM 54.0 °F 52.7 °F 95% 29.94 in 10.0 mi ESE 3.5 mph - 0.05 in Rain Light Rain